Вернуться в каталог

STARLINK-11148

АктивенСвязьVLEO
NORAD 60044·PAYLOAD·🇺🇸 United States

Запущен Jun 8, 2024 с Vandenberg Space Force Base

Loading…

Ближайшие Пролёты (ближайшие 24 часа)

TLE

СвежийSource: CelesTrak SupGP

Эпоха: Sep 14, 2026, 14:42 UTC

1 60044C 24112G   26257.61298611 -.00047751  00000+0 -39337-3 0  2570
2 60044  53.1573  54.9338 0001061  80.2416 282.8288 15.69731492    17

Отслеживайте STARLINK-11148 в реальном времени с AllMySat

Download on the App Store